"2010-06-04 00:00:00",170380,4.375,325.6,7.089,0.233,19.62,108.8424,21.92,22.79,27.35,0,110.9,13.25,22.75,287.6
"2010-06-04 00:00:30",170381,4.646,326.4,3.054,0.283,19.58,108.8424,21.92,22.81,28.03,0,110.9,13.25,22.75,288.4
"2010-06-04 00:01:00",170382,5.838,328,4.557,0.406,19.56,108.8424,21.92,22.8,28.16,0,110.9,13.25,22.75,290.0
"2010-06-04 00:01:30",170383,6.187,320.9,1.872,0.247,19.57,108.8424,21.92,22.81,29.02,0,110.9,13.25,22.75,282.9
"2010-06-04 00:02:00",170384,5.636,325.4,2.59,0.276,19.63,108.8373,21.91,22.79,28.46,0,110.9,13.25,22.74,287.4
"2010-06-04 00:02:30",170385,5.641,328.5,6.029,0.424,19.65,108.825,21.88,22.78,28.26,0,110.9,13.25,22.71,290.5
"2010-06-04 00:03:00",170386,6.045,335.1,2.164,0.426,19.64,108.8193,21.86,22.78,28.12,0,110.9,13.25,22.69,297.1
"2010-06-04 00:03:30",170387,5.063,329.4,4.1,0.248,19.6,108.8194,21.86,22.79,28.25,0,110.9,13.25,22.69,291.4
"2010-06-04 00:04:00",170388,6.528,329.5,4.567,0.276,19.72,108.8219,21.87,22.79,27.69,0,110.9,13.25,22.70,291.5
"2010-06-04 00:04:30",170389,6.06,314.4,5.208,0.231,19.78,108.8434,21.92,22.79,27.04,0,110.9,13.25,22.75,276.4
"2010-06-04 00:05:00",170390,6.064,307.1,5.057,0.303,19.79,108.8433,21.92,22.82,26.93,0,110.9,13.25,22.75,269.1
"2010-06-04 00:05:30",170391,6.325,319.1,3.716,0.789,19.66,108.863,21.97,22.83,27.61,0,110.9,13.25,22.80,281.1
"2010-06-04 00:06:00",170392,5.731,336,5.588,0.63,19.59,108.8663,21.98,22.84,28.04,0,110.9,13.25,22.81,298.0
"2010-06-04 00:06:30",170393,5.864,328.8,4.439,0.314,19.49,108.8468,21.93,22.85,28.28,0,110.9,13.25,22.76,290.8
"2010-06-04 00:07:00",170394,5.23,325.9,2.482,0.306,19.5,108.8455,21.93,22.86,28.1,0,110.9,13.25,22.76,287.9
"2010-06-04 00:07:30",170395,5.353,323.8,2.58,0.155,19.5,108.8455,21.93,22.86,27.81,0,110.9,13.25,22.76,285.8
"2010-06-04 00:08:00",170396,5.784,335.5,4.034,0.297,19.41,108.8457,21.93,22.86,28.12,0,110.9,13.25,22.76,297.5
"2010-06-04 00:08:30",170397,5.873,334,2.015,0.147,19.5,108.847,21.93,22.85,27.85,0,110.9,13.25,22.76,296.0
"2010-06-04 00:09:00",170398,5.56,335.3,3.625,0.374,19.55,108.8497,21.94,22.84,27.56,0,110.9,13.25,22.77,297.3
"2010-06-04 00:09:30",170399,5.701,333.9,1.702,0.457,19.58,108.8516,21.95,22.86,27.36,0,110.9,13.25,22.77,295.9
"2010-06-04 00:10:00",170400,5.965,330.7,4.005,0.196,19.58,108.8722,22,22.87,27.16,0,110.9,13.25,22.83,292.7
"2010-06-04 00:10:30",170401,5.759,334.4,3.844,0.364,19.49,108.8875,22.04,22.89,27.56,0,110.9,13.25,22.87,296.4
"2010-06-04 00:11:00",170402,5.604,338.6,2.608,0.163,19.49,108.8894,22.04,22.89,27.69,0,110.9,13.26,22.87,300.6
"2010-06-04 00:11:30",170403,5.973,342.3,1.339,0.246,19.52,108.883,22.03,22.88,27.7,0,110.9,13.26,22.85,304.3
"2010-06-04 00:12:00",170404,6.287,336.6,4.557,0.241,19.51,108.8683,21.99,22.89,27.82,0,110.9,13.26,22.82,298.6
"2010-06-04 00:12:30",170405,6.05,332.8,1.165,0.171,19.56,108.8626,21.97,22.88,27.75,0,110.9,13.26,22.80,294.8
"2010-06-04 00:13:00",170406,5.916,326.1,4.011,0.247,19.62,108.8623,21.97,22.88,27.59,0,110.9,13.26,22.80,288.1
"2010-06-04 00:13:30",170407,6.398,324.8,1.723,0.225,19.63,108.8662,21.98,22.89,27.6,0,110.9,13.26,22.81,286.8
"2010-06-04 00:14:00",170408,6.113,329.3,1.78,0.241,19.61,108.8815,22.02,22.88,27.58,0,110.9,13.26,22.85,291.3
"2010-06-04 00:14:30",170409,6.169,327.9,3.999,0.288,19.56,108.8931,22.05,22.89,27.64,0,110.9,13.25,22.88,289.9
"2010-06-04 00:15:00",170410,6.037,323.9,1.739,0.391,19.59,108.901,22.07,22.9,27.67,0,110.9,13.26,22.90,285.9
"2010-06-04 00:15:30",170411,5.85,327.4,1.711,0.221,19.55,108.8982,22.06,22.9,27.62,0,110.9,13.25,22.89,289.4
"2010-06-04 00:16:00",170412,6.26,325.7,2.61,0.424,19.57,108.897,22.06,22.89,27.61,0,110.9,13.25,22.89,287.7
"2010-06-04 00:16:30",170413,6.173,333,2.697,0.288,19.59,108.8982,22.06,22.91,27.63,0,110.9,13.25,22.89,295.0
"2010-06-04 00:17:00",170414,6.167,330.5,1.469,0.26,19.64,108.8982,22.06,22.91,27.47,0,110.9,13.25,22.89,292.5
"2010-06-04 00:17:30",170415,5.907,326.5,3.064,0.307,19.63,108.9006,22.07,22.91,27.45,0,110.9,13.25,22.90,288.5
"2010-06-04 00:18:00",170416,6.478,328.7,1.422,0.265,19.63,108.9003,22.07,22.91,27.44,0,110.9,13.25,22.90,290.7
"2010-06-04 00:18:30",170417,6.826,323.1,2.631,0.194,19.65,108.9006,22.07,22.91,27.4,0,110.9,13.25,22.90,285.1
"2010-06-04 00:19:00",170418,6.306,330.2,1.231,0.202,19.63,108.9022,22.07,22.94,27.53,0,110.9,13.25,22.90,292.2
"2010-06-04 00:19:30",170419,6.707,325.7,2.627,0.42,19.68,108.9028,22.08,22.93,27.52,0,110.9,13.25,22.91,287.7
"2010-06-04 00:20:00",170420,6.331,323.8,1.543,0.249,19.69,108.9037,22.08,22.93,27.5,0,110.9,13.25,22.91,285.8
"2010-06-04 00:20:30",170421,6.831,324.8,1.85,0.359,19.71,108.9037,22.08,22.95,27.47,0,110.9,13.25,22.91,286.8
"2010-06-04 00:21:00",170422,6.918,327.4,2.135,0.415,19.76,108.904,22.08,22.95,27.33,0,110.9,13.25,22.91,289.4
"2010-06-04 00:21:30",170423,6.602,324.9,2.778,0.199,19.86,108.9049,22.08,22.96,26.69,0,110.9,13.25,22.91,286.9
"2010-06-04 00:22:00",170424,6.627,318.2,2.731,0.315,19.88,108.9065,22.09,22.96,26.97,0,110.9,13.25,22.92,280.2
"2010-06-04 00:22:30",170425,6.891,319.5,3.731,0.255,19.97,108.9057,22.08,22.97,27.19,0,110.9,13.25,22.91,281.5
"2010-06-04 00:23:00",170426,6.683,323.2,2.83,0.271,19.99,108.9062,22.09,22.97,27.32,0,110.9,13.25,22.91,285.2
"2010-06-04 00:23:30",170427,6.261,320.1,5.13,0.345,19.88,108.9052,22.08,22.97,27.09,0,110.9,13.25,22.91,282.1
"2010-06-04 00:24:00",170428,6.399,324.5,5.76,0.689,19.85,108.9065,22.09,22.95,26.98,0,110.9,13.25,22.92,286.5
"2010-06-04 00:24:30",170429,5.694,328.6,7.326,0.457,19.83,108.9077,22.09,22.96,27.09,0,110.9,13.25,22.92,290.6
"2010-06-04 00:25:00",170430,7.401,321.2,3.8,0.236,19.82,108.9077,22.09,22.95,27.12,0,110.9,13.25,22.92,283.2
"2010-06-04 00:25:30",170431,6.887,326.3,3.585,0.315,19.8,108.9101,22.1,22.94,27.08,0,110.9,13.25,22.92,288.3
"2010-06-04 00:26:00",170432,6.502,323,5.717,0.5,19.78,108.9101,22.1,22.95,27.05,0,110.9,13.25,22.92,285.0
"2010-06-04 00:26:30",170433,7.228,313.6,3.377,0.506,19.76,108.9107,22.1,22.96,27.22,0,110.9,13.25,22.93,275.6
"2010-06-04 00:27:00",170434,6.14,314.5,3.365,0.406,19.79,108.9104,22.1,22.95,27.36,0,110.9,13.25,22.93,276.5
"2010-06-04 00:27:30",170435,6.132,321.1,3.877,0.452,19.8,108.9107,22.1,22.96,27.56,0,110.9,13.25,22.93,283.1
"2010-06-04 00:28:00",170436,6.289,310.2,4.119,0.504,19.77,108.9098,22.09,22.95,27.74,0,110.9,13.25,22.92,272.2
"2010-06-04 00:28:30",170437,6.015,314.3,4.714,0.288,19.77,108.9114,22.1,22.94,27.24,0,110.9,13.25,22.93,276.3
"2010-06-04 00:29:00",170438,5.914,318.3,5.419,0.4,19.77,108.9062,22.09,22.94,27.36,0,110.9,13.25,22.91,280.3
"2010-06-04 00:29:30",170439,7.301,302.7,2.773,0.937,19.91,108.9039,22.08,22.93,26.75,0,110.9,13.25,22.91,264.7
"2010-06-04 00:30:00",170440,7.711,292.1,4.801,0.385,20.11,108.9089,22.09,22.94,25.75,0,110.9,13.25,22.92,254.1
"2010-06-04 00:30:30",170441,6.782,286.6,3.59,0.469,20.27,108.9291,22.14,22.97,25.25,0,110.9,13.25,22.97,248.6
"2010-06-04 00:31:00",170442,6.73,285.9,6.459,0.452,20.16,108.963,22.23,23.01,25.13,0,110.9,13.25,23.06,247.9
"2010-06-04 00:31:30",170443,7.413,294.3,3.369,0.527,20.08,108.9737,22.26,23.07,25.42,0,110.9,13.25,23.09,256.3
"2010-06-04 00:32:00",170444,7.869,292.1,6.753,0.667,20.14,108.998,22.32,23.1,25.43,0,110.9,13.25,23.15,254.1
"2010-06-04 00:32:30",170445,9.02,294.7,3.363,0.591,20.22,108.9925,22.31,23.12,25.08,0,110.9,13.25,23.14,256.7
"2010-06-04 00:33:00",170446,8.94,295.9,2.852,0.645,20.02,109.003,22.33,23.16,25.45,0,110.9,13.25,23.16,257.9
"2010-06-04 00:33:30",170447,7.391,296.9,8.6,1.393,19.97,109.0059,22.34,23.17,25.88,0,110.9,13.25,23.17,258.9
"2010-06-04 00:34:00",170448,7.71,304,4.481,0.691,19.96,108.9917,22.3,23.17,26.17,0,110.9,13.25,23.13,266.0
"2010-06-04 00:34:30",170449,7.273,315.1,4.893,0.525,19.99,108.987,22.29,23.16,27.78,0,110.9,13.25,23.12,277.1
"2010-06-04 00:35:00",170450,8.89,308.5,4.153,0.494,20.53,108.9888,22.3,23.15,24.92,0,110.9,13.25,23.13,270.5
"2010-06-04 00:35:30",170451,9.43,307.7,2.597,0.61,20.5,108.9945,22.31,23.16,24.63,0,110.9,13.25,23.14,269.7
"2010-06-04 00:36:00",170452,8.31,305.5,3.506,1.026,20.39,109.0196,22.38,23.19,24.68,0,110.9,13.25,23.21,267.5
"2010-06-04 00:36:30",170453,7.393,309.9,6.935,0.656,20.26,109.0232,22.39,23.23,24.79,0,110.9,13.25,23.22,271.9
"2010-06-04 00:37:00",170454,6.848,301.7,5.562,0.506,20.26,109.0482,22.45,23.26,24.88,0,110.9,13.25,23.28,263.7
"2010-06-04 00:37:30",170455,6.214,311.5,3.545,0.336,20.16,109.0513,22.46,23.3,25.28,0,110.9,13.25,23.29,273.5
"2010-06-04 00:38:00",170456,5.951,320.8,6.103,0.386,19.9,109.0316,22.41,23.29,25.71,0,110.9,13.25,23.24,282.8
"2010-06-04 00:38:30",170457,6.487,308.4,5.1,0.611,19.89,109.0185,22.37,23.27,25.88,0,110.9,13.25,23.20,270.4
"2010-06-04 00:39:00",170458,8.46,299.5,3.548,0.354,20.1,109.0191,22.38,23.26,25.14,0,110.9,13.24,23.21,261.5
"2010-06-04 00:39:30",170459,7.128,298.4,7.029,1.049,19.91,109.0158,22.37,23.25,25.63,0,110.9,13.24,23.20,260.4
"2010-06-04 00:40:00",170460,7.191,306.3,4.76,0.381,19.99,109.0154,22.37,23.24,25.3,0,110.9,13.24,23.20,268.3
"2010-06-04 00:40:30",170461,6.05,322.2,4.627,0.387,19.67,109.0001,22.33,23.24,26.44,0,110.9,13.24,23.16,284.2
"2010-06-04 00:41:00",170462,6.265,317.3,3.228,0.374,19.8,108.9826,22.28,23.23,26.08,0,110.9,13.24,23.11,279.3
"2010-06-04 00:41:30",170463,6.51,314.2,2.117,0.21,19.88,108.9835,22.28,23.22,25.73,0,110.9,13.24,23.11,276.2
"2010-06-04 00:42:00",170464,7.283,307.8,3.582,0.483,19.87,108.9857,22.29,23.19,25.92,0,110.9,13.24,23.12,269.8
"2010-06-04 00:42:30",170465,6.978,310.6,2.117,0.289,19.92,108.9835,22.28,23.2,25.8,0,110.9,13.24,23.11,272.6
"2010-06-04 00:43:00",170466,6.42,311.7,2.957,0.253,19.92,108.9808,22.28,23.2,25.84,0,110.9,13.24,23.11,273.7
"2010-06-04 00:43:30",170467,7.173,305.7,1.987,0.397,20.11,108.9792,22.27,23.2,25.42,0,110.9,13.25,23.10,267.7
"2010-06-04 00:44:00",170468,7.5,304.7,3.796,0.837,20.07,108.9865,22.29,23.22,25.47,0,110.9,13.25,23.12,266.7
"2010-06-04 00:44:30",170469,9.67,297.5,2.076,0.409,20.25,109.0069,22.34,23.23,24.94,0,110.9,13.25,23.17,259.5
"2010-06-04 00:45:00",170470,8.72,292.6,2.701,0.373,20.27,109.0117,22.36,23.26,24.96,0,110.9,13.25,23.19,254.6
"2010-06-04 00:45:30",170471,9.15,298.8,1.934,0.548,20.4,109.0303,22.4,23.28,24.82,0,110.9,13.24,23.23,260.8
"2010-06-04 00:46:00",170472,8.47,295.2,3.346,0.459,20.36,109.0449,22.44,23.29,24.97,0,110.9,13.24,23.27,257.2
"2010-06-04 00:46:30",170473,6.946,301.9,7.184,0.435,20.3,109.0449,22.44,23.32,25.39,0,110.9,13.24,23.27,263.9
"2010-06-04 00:47:00",170474,6.515,296.8,2.365,0.317,20.44,109.0449,22.44,23.3,25.16,0,110.9,13.24,23.27,258.8
"2010-06-04 00:47:30",170475,5.877,297.8,4.931,0.321,20.31,109.037,22.42,23.3,25.48,0,110.9,13.24,23.25,259.8
"2010-06-04 00:48:00",170476,6.059,307.4,6.059,0.361,20.34,109.0151,22.36,23.3,25.64,0,110.9,13.24,23.19,269.4
"2010-06-04 00:48:30",170477,6.098,312.9,1.86,0.376,20.3,109.0089,22.35,23.27,25.96,0,110.9,13.24,23.18,274.9
"2010-06-04 00:49:00",170478,6.004,312,2.273,0.349,20.34,108.9833,22.28,23.25,25.78,0,110.9,13.24,23.11,274.0
"2010-06-04 00:49:30",170479,6.453,309,2.197,0.334,20.31,108.9792,22.27,23.25,25.83,0,110.9,13.24,23.10,271.0
"2010-06-04 00:50:00",170480,6.04,310.4,2.163,0.313,20.4,108.9826,22.28,23.22,25.66,0,110.9,13.24,23.11,272.4
"2010-06-04 00:50:30",170481,7.009,307.3,3.937,0.526,20.36,108.9912,22.3,23.22,25.8,0,110.9,13.24,23.13,269.3
"2010-06-04 00:51:00",170482,7.697,313.2,2.592,0.473,20.31,108.988,22.3,23.21,26.04,0,110.9,13.25,23.13,275.2
"2010-06-04 00:51:30",170483,6.766,309.3,5.662,0.594,20.32,108.9737,22.26,23.19,26.05,0,110.9,13.25,23.09,271.3
"2010-06-04 00:52:00",170484,6.518,309.5,2.053,0.79,20.41,108.97,22.25,23.17,26.07,0,110.9,13.25,23.08,271.5
"2010-06-04 00:52:30",170485,6.869,306.6,1.727,0.332,20.79,108.9742,22.26,23.17,24.84,0,110.9,13.25,23.09,268.6
"2010-06-04 00:53:00",170486,8.82,308.9,2.957,0.583,20.6,109.003,22.33,23.18,24.97,0,110.9,13.25,23.16,270.9
"2010-06-04 00:53:30",170487,8.37,312.9,1.618,0.392,20.35,109.005,22.34,23.2,25.34,0,110.9,13.25,23.17,274.9
"2010-06-04 00:54:00",170488,8.38,311.9,4.105,0.493,20.18,109.0053,22.34,23.2,25.69,0,110.9,13.25,23.17,273.9
"2010-06-04 00:54:30",170489,8.59,306.9,3.662,0.425,20.3,109.0061,22.34,23.22,25.42,0,110.9,13.25,23.17,268.9
"2010-06-04 00:55:00",170490,7.898,299.8,3.972,0.428,20.38,109.0078,22.35,23.23,25.44,0,110.9,13.24,23.18,261.8
"2010-06-04 00:55:30",170491,7.679,303,4.605,0.414,20.51,109.0134,22.36,23.23,25.29,0,110.9,13.24,23.19,265.0
"2010-06-04 00:56:00",170492,7.798,299.4,6.411,0.629,20.4,109.0184,22.37,23.23,25.53,0,110.9,13.24,23.20,261.4
"2010-06-04 00:56:30",170493,7.522,283,4.243,1.014,20.46,109.0237,22.39,23.24,25.27,0,110.9,13.24,23.22,245.0
"2010-06-04 00:57:00",170494,8.04,287.6,3.767,0.437,20.47,109.0384,22.42,23.25,25.18,0,110.9,13.24,23.25,249.6
"2010-06-04 00:57:30",170495,8.13,296.1,4.416,0.632,20.41,109.039,22.43,23.25,25.37,0,110.9,13.24,23.26,258.1
"2010-06-04 00:58:00",170496,7.195,296.8,3.031,0.293,20.26,109.0373,22.42,23.26,25.85,0,110.9,13.24,23.25,258.8
"2010-06-04 00:58:30",170497,8.39,295.7,6.222,1.003,20.25,109.0208,22.38,23.24,25.91,0,110.9,13.24,23.21,257.7
"2010-06-04 00:59:00",170498,7.383,299.4,3.586,0.489,20.23,109.0152,22.36,23.25,25.85,0,110.9,13.24,23.20,261.4
"2010-06-04 00:59:30",170499,8.28,299.9,4.772,0.599,20.45,109.0069,22.34,23.26,25.61,0,110.9,13.24,23.17,261.9
"2010-06-04 01:00:00",170500,8.89,292.5,3.241,0.696,20.51,109.0119,22.36,23.24,25.5,0,110.9,13.24,23.19,254.5
"2010-06-04 01:00:30",170501,7.988,298.4,3.129,0.408,20.34,109.0087,22.35,23.25,25.91,0,110.9,13.24,23.18,260.4
"2010-06-04 01:01:00",170502,7.962,297.8,2.653,0.345,20.32,109.0068,22.34,23.25,26.23,0,110.9,13.25,23.17,259.8
"2010-06-04 01:01:30",170503,7.975,303.7,2.859,0.245,20.38,109.0069,22.34,23.21,25.98,0,110.8,13.25,23.17,265.7
"2010-06-04 01:02:00",170504,8.83,306.4,2.912,0.804,20.54,108.9996,22.33,23.22,25.66,0,110.9,13.25,23.15,268.4
"2010-06-04 01:02:30",170505,8.78,306,2.646,0.447,20.6,109.0033,22.33,23.21,25.57,0,110.8,13.25,23.16,268.0
"2010-06-04 01:03:00",170506,9.43,303.4,3.829,0.529,20.57,109.0113,22.36,23.21,25.45,0,110.8,13.25,23.19,265.4
"2010-06-04 01:03:30",170507,8.73,305.6,2.767,0.448,20.47,109.0097,22.35,23.22,25.73,0,110.8,13.25,23.18,267.6
"2010-06-04 01:04:00",170508,8.42,297.3,3.294,0.466,20.66,109.0037,22.34,23.22,25.46,0,110.8,13.25,23.17,259.3
"2010-06-04 01:04:30",170509,8.65,302.5,3.813,0.475,20.82,109.0139,22.36,23.2,24.89,0,110.8,13.25,23.19,264.5
"2010-06-04 01:05:00",170510,10.41,301.8,4.052,0.572,20.72,109.0142,22.36,23.22,25.13,0,110.8,13.25,23.19,263.8
"2010-06-04 01:05:30",170511,10.45,301.4,1.978,0.537,20.67,109.0153,22.37,23.24,25.2,0,110.8,13.25,23.20,263.4
"2010-06-04 01:06:00",170512,9.81,294.6,4.265,0.561,20.62,109.0237,22.39,23.25,25.26,0,110.8,13.25,23.22,256.6
"2010-06-04 01:06:30",170513,9.59,297.1,2.96,0.402,20.55,109.0257,22.39,23.26,25.37,0,110.8,13.25,23.22,259.1
"2010-06-04 01:07:00",170514,10.24,295.4,2.654,0.603,20.63,109.0288,22.4,23.27,25.31,0,110.8,13.25,23.23,257.4
"2010-06-04 01:07:30",170515,10.66,297.9,2.358,0.379,20.62,109.0378,22.42,23.27,25.18,0,110.8,13.25,23.25,259.9
"2010-06-04 01:08:00",170516,9.92,296.6,2.114,0.336,20.63,109.0454,22.44,23.29,25.26,0,110.8,13.25,23.27,258.6
"2010-06-04 01:08:30",170517,9.79,300.4,2.135,0.5,20.6,109.0479,22.45,23.3,25.28,0,110.8,13.25,23.28,262.4
"2010-06-04 01:09:00",170518,9.58,298.5,2.493,0.27,20.63,109.0474,22.45,23.3,25.32,0,110.8,13.25,23.28,260.5
"2010-06-04 01:09:30",170519,9.2,297,2.591,0.447,20.65,109.0479,22.45,23.31,25.24,0,110.8,13.25,23.28,259.0
"2010-06-04 01:10:00",170520,8.68,303,4.235,1.106,20.57,109.0479,22.45,23.31,25.48,0,110.8,13.25,23.28,265.0
"2010-06-04 01:10:30",170521,9.99,293.2,3.525,0.567,20.71,109.0479,22.45,23.31,25.02,0,110.8,13.25,23.28,255.2
"2010-06-04 01:11:00",170522,9.58,293.9,4.038,0.81,20.51,109.0479,22.45,23.31,25.38,0,110.8,13.25,23.28,255.9
"2010-06-04 01:11:30",170523,8.52,297.5,4.056,0.448,20.54,109.0479,22.45,23.32,25.23,0,110.8,13.25,23.28,259.5
"2010-06-04 01:12:00",170524,8,304.9,2.452,0.866,20.47,109.0479,22.45,23.31,25.37,0,110.8,13.25,23.28,266.9
"2010-06-04 01:12:30",170525,8.99,304.6,3.069,0.423,20.55,109.0479,22.45,23.31,25.14,0,110.8,13.25,23.28,266.6
"2010-06-04 01:13:00",170526,9.13,298.7,2.895,0.388,20.57,109.0479,22.45,23.34,25.26,0,110.8,13.25,23.28,260.7
"2010-06-04 01:13:30",170527,8.99,295.1,2.24,0.448,20.53,109.0479,22.45,23.33,25.49,0,110.8,13.25,23.28,257.1
"2010-06-04 01:14:00",170528,8.77,295.5,2.64,0.773,20.54,109.0479,22.45,23.33,25.5,0,110.8,13.25,23.28,257.5
"2010-06-04 01:14:30",170529,8.36,298.8,2.175,0.281,20.5,109.0479,22.45,23.33,25.56,0,110.8,13.24,23.28,260.8
"2010-06-04 01:15:00",170530,7.771,300,2.122,0.15,20.44,109.0479,22.45,23.34,25.68,0,110.8,13.25,23.28,262.0
"2010-06-04 01:15:30",170531,8.46,297,1.478,0.212,20.38,109.044,22.44,23.32,25.78,0,110.8,13.24,23.27,259.0
"2010-06-04 01:16:00",170532,8.18,297.2,1.757,0.511,20.3,109.0313,22.41,23.31,25.86,0,110.8,13.24,23.24,259.2
"2010-06-04 01:16:30",170533,8.75,295.3,1.976,0.341,20.36,109.0232,22.39,23.3,25.88,0,110.8,13.25,23.22,257.3
"2010-06-04 01:17:00",170534,9.11,296.8,1.621,0.289,20.41,109.017,22.37,23.31,25.85,0,110.8,13.25,23.20,258.8
"2010-06-04 01:17:30",170535,8.63,302.3,2.201,0.245,20.26,109.0142,22.36,23.3,26.22,0,110.8,13.25,23.19,264.3
"2010-06-04 01:18:00",170536,9.23,304.4,1.94,1.005,20.38,109.0142,22.36,23.27,25.81,0,110.8,13.25,23.19,266.4
"2010-06-04 01:18:30",170537,9.69,304.4,3.907,0.286,20.5,109.0142,22.36,23.27,25.45,0,110.8,13.25,23.19,266.4
"2010-06-04 01:19:00",170538,9.22,305.1,1.404,0.28,20.53,109.0192,22.38,23.3,25.2,0,110.8,13.25,23.21,267.1
"2010-06-04 01:19:30",170539,8.3,302.1,2.471,0.647,20.31,109.0341,22.41,23.3,25.6,0,110.8,13.25,23.24,264.1
"2010-06-04 01:20:00",170540,8.38,301.3,3.371,0.324,20.26,109.0448,22.44,23.31,25.65,0,110.8,13.25,23.27,263.3
"2010-06-04 01:20:30",170541,7.793,298,2.301,0.65,20.22,109.0471,22.45,23.31,25.87,0,110.8,13.25,23.28,260.0
"2010-06-04 01:21:00",170542,7.682,302.8,2.592,0.487,20.13,109.0274,22.4,23.3,26.29,0,110.8,13.25,23.23,264.8
"2010-06-04 01:21:30",170543,7.739,295.5,2.24,0.262,20.27,109.0142,22.36,23.29,26.16,0,110.8,13.25,23.19,257.5
"2010-06-04 01:22:00",170544,8.8,296.1,1.243,0.271,20.38,109.0142,22.36,23.27,26.12,0,110.8,13.25,23.19,258.1
"2010-06-04 01:22:30",170545,8.53,296.1,2.39,0.417,20.42,109.0142,22.36,23.29,26.22,0,110.8,13.25,23.19,258.1
"2010-06-04 01:23:00",170546,8.02,298.3,1.385,0.227,20.4,109.0142,22.36,23.27,26.42,0,110.8,13.25,23.19,260.3
"2010-06-04 01:23:30",170547,8.18,298.5,0.998,0.231,20.43,109.0133,22.36,23.27,26.54,0,110.8,13.25,23.19,260.5
"2010-06-04 01:24:00",170548,8.73,299.7,1.141,0.256,20.56,108.9942,22.31,23.25,26.27,0,110.8,13.25,23.14,261.7
"2010-06-04 01:24:30",170549,8.58,299.5,2.226,0.302,20.55,108.9905,22.3,23.24,26.15,0,110.8,13.25,23.13,261.5
"2010-06-04 01:25:00",170550,8.82,299.4,2.682,0.359,20.55,108.99,22.3,23.24,26.22,0,110.8,13.25,23.13,261.4
"2010-06-04 01:25:30",170551,9.05,296.3,1.279,0.268,20.67,108.9905,22.3,23.23,25.88,0,110.8,13.25,23.13,258.3
"2010-06-04 01:26:00",170552,8.28,296.9,2.191,0.487,20.48,108.9948,22.31,23.23,26.3,0,110.8,13.25,23.14,258.9
"2010-06-04 01:26:30",170553,8.08,297.6,2.267,0.242,20.48,108.9841,22.29,23.22,26.51,0,110.8,13.25,23.11,259.6
"2010-06-04 01:27:00",170554,8.84,293.1,2.2,0.645,20.63,108.9813,22.28,23.22,26.11,0,110.8,13.25,23.11,255.1
"2010-06-04 01:27:30",170555,9.25,293.1,3.247,0.498,20.81,108.9925,22.31,23.22,25.27,0,110.8,13.25,23.14,255.1
"2010-06-04 01:28:00",170556,8.86,294.5,2.152,0.464,20.65,109.0136,22.36,23.23,25.71,0,110.8,13.25,23.19,256.5
"2010-06-04 01:28:30",170557,8.45,294,1.788,0.368,20.61,109.0142,22.36,23.23,26.04,0,110.8,13.25,23.19,256.0
"2010-06-04 01:29:00",170558,8.58,299,2.136,0.512,20.58,109.0142,22.36,23.23,26.02,0,110.8,13.25,23.19,261.0
"2010-06-04 01:29:30",170559,8.63,298.1,2.851,0.565,20.7,109.0142,22.36,23.23,25.83,0,110.8,13.24,23.19,260.1
"2010-06-04 01:30:00",170560,8.82,297.1,2.938,0.508,20.78,109.0142,22.36,23.24,25.43,0,110.8,13.24,23.19,259.1
"2010-06-04 01:30:30",170561,8.37,297.1,1.839,0.193,20.62,109.0142,22.36,23.25,25.7,0,110.8,13.24,23.19,259.1
"2010-06-04 01:31:00",170562,8.55,296.1,2.368,0.678,20.51,109.0142,22.36,23.25,26.16,0,110.8,13.24,23.19,258.1
"2010-06-04 01:31:30",170563,7.514,297.6,2.364,0.233,20.54,109.0142,22.36,23.25,26.12,0,110.8,13.24,23.19,259.6
"2010-06-04 01:32:00",170564,8.59,297.4,1.487,0.562,20.6,109.0088,22.35,23.24,26.18,0,110.8,13.24,23.18,259.4
"2010-06-04 01:32:30",170565,10.32,293.9,3.07,0.561,20.82,109.0111,22.35,23.23,25.39,0,110.8,13.24,23.18,255.9
"2010-06-04 01:33:00",170566,10.07,287.7,2.226,0.436,20.91,109.0142,22.36,23.24,25.24,0,110.8,13.24,23.19,249.7
"2010-06-04 01:33:30",170567,9.27,293.5,2.828,0.436,20.81,109.0142,22.36,23.26,25.24,0,110.8,13.24,23.19,255.5
"2010-06-04 01:34:00",170568,8.67,296.4,1.899,0.286,20.73,109.0232,22.39,23.28,25.37,0,110.8,13.25,23.22,258.4
"2010-06-04 01:34:30",170569,8.51,291,4.496,0.268,20.68,109.0271,22.4,23.29,25.49,0,110.8,13.25,23.23,253.0
"2010-06-04 01:35:00",170570,8.74,288.3,4.427,0.287,20.63,109.0291,22.4,23.29,25.62,0,110.8,13.25,23.23,250.3
"2010-06-04 01:35:30",170571,8.1,299.9,2.527,0.218,20.56,109.0249,22.39,23.29,25.87,0,110.8,13.25,23.22,261.9
"2010-06-04 01:36:00",170572,7.571,302.8,2.614,0.451,20.58,109.0142,22.36,23.29,26.01,0,110.8,13.25,23.19,264.8
"2010-06-04 01:36:30",170573,7.554,300.3,3.602,0.66,20.59,109.0142,22.36,23.28,25.89,0,110.8,13.25,23.19,262.3
"2010-06-04 01:37:00",170574,6.962,300.8,3.747,0.28,20.6,109.0142,22.36,23.26,25.87,0,110.8,13.25,23.19,262.8
"2010-06-04 01:37:30",170575,7.487,294.4,3.078,0.392,20.62,109.0131,22.36,23.26,25.85,0,110.8,13.25,23.19,256.4
"2010-06-04 01:38:00",170576,6.93,301.9,3.578,0.252,20.59,109.0001,22.33,23.24,25.98,0,110.8,13.25,23.16,263.9
"2010-06-04 01:38:30",170577,7.838,298.4,2.374,0.384,20.64,108.9911,22.3,23.25,25.85,0,110.8,13.25,23.13,260.4
"2010-06-04 01:39:00",170578,8.11,301.2,3.533,0.373,20.53,108.9841,22.29,23.23,26.18,0,110.8,13.25,23.11,263.2
"2010-06-04 01:39:30",170579,7.413,302.7,2.916,0.188,20.51,108.9804,22.28,23.24,26.23,0,110.8,13.25,23.11,264.7
"2010-06-04 01:40:00",170580,6.997,306.2,1.421,0.421,20.54,108.9804,22.28,23.23,26.13,0,110.8,13.25,23.11,268.2
"2010-06-04 01:40:30",170581,7.043,302.7,2.843,0.327,20.51,108.9804,22.28,23.21,26.1,0,110.8,13.25,23.11,264.7
"2010-06-04 01:41:00",170582,7.365,303.9,3.005,0.703,20.55,108.9804,22.28,23.19,26.1,0,110.8,13.25,23.11,265.9
"2010-06-04 01:41:30",170583,8.2,300.8,2.319,0.65,20.56,108.9776,22.27,23.2,26.19,0,110.8,13.25,23.10,262.8
"2010-06-04 01:42:00",170584,7.75,304.5,3.952,0.559,20.5,108.9723,22.25,23.19,26.22,0,110.8,13.25,23.08,266.5
"2010-06-04 01:42:30",170585,7.165,303.3,1.778,0.164,20.46,108.97,22.25,23.18,26.38,0,110.8,13.26,23.08,265.3
"2010-06-04 01:43:00",170586,7.443,299,1.695,0.346,20.45,108.9486,22.19,23.16,26.45,0,110.8,13.26,23.02,261.0
"2010-06-04 01:43:30",170587,7.991,302.3,2.425,0.309,20.45,108.9467,22.19,23.15,26.5,0,110.8,13.26,23.02,264.3
"2010-06-04 01:44:00",170588,8.04,305.4,1.98,0.261,20.44,108.947,22.19,23.14,26.47,0,110.8,13.26,23.02,267.4
"2010-06-04 01:44:30",170589,8.25,304,4.011,0.713,20.42,108.9467,22.19,23.14,26.3,0,110.8,13.25,23.02,266.0
"2010-06-04 01:45:00",170590,9.33,303.2,3.615,0.704,20.51,108.9467,22.19,23.15,26.12,0,110.8,13.26,23.02,265.2
"2010-06-04 01:45:30",170591,9.34,299,2.947,0.438,20.46,108.9467,22.19,23.13,26.05,0,110.8,13.25,23.02,261.0
"2010-06-04 01:46:00",170592,7.806,305.8,3.139,0.458,20.34,108.9469,22.19,23.14,26.32,0,110.8,13.25,23.02,267.8
"2010-06-04 01:46:30",170593,7.656,306.3,2.359,0.301,20.37,108.9472,22.19,23.14,26.32,0,110.8,13.25,23.02,268.3
"2010-06-04 01:47:00",170594,8.16,300.3,2.921,0.494,20.35,108.9475,22.19,23.14,26.35,0,110.8,13.25,23.02,262.3
"2010-06-04 01:47:30",170595,7.638,307.1,3.324,0.216,20.31,108.9467,22.19,23.14,26.56,0,110.8,13.25,23.02,269.1
"2010-06-04 01:48:00",170596,8.07,311.4,1.898,0.424,20.31,108.9467,22.19,23.12,26.6,0,110.8,13.25,23.02,273.4